Weather History for Alpena, MI

Change the Weather History Date:

Thursday, November 14, 2013

  Actual Average Record
Temperature  
Mean Temperature 42 °F 36 °F  
Max Temperature 49 °F 44 °F 66 °F (1994)
Min Temperature 35 °F 29 °F 3 °F (1940)
Degree Days  
Heating Degree Days 23 29  
Month to date heating degree days 375 371  
Since 1 July heating degree days 1305 1315  
Moisture  
Dew Point 27 °F    
Average Humidity 58    
Maximum Humidity 70    
Minimum Humidity 45    
Precipitation  
Precipitation 0.00 in 0.07 in 0.61 in (1957)
Month to date precipitation 0.83 0.99  
Year to date precipitation 28.28 25.30  
Snow  
Snow 0.00 in 0.20 in 6.40 in (1967)
Month to date snowfall 0.3 2.2  
Since 1 July snowfall 0.3 2.6  
Snow Depth 0.00 in    
Sea Level Pressure  
Sea Level Pressure 29.89 in    
Wind  
Wind Speed 9 mph (SW)    
Max Wind Speed 18 mph    
Max Gust Speed 27 mph    
Visibility 10 miles    
Events      
T = Trace of Precipitation, MM = Missing Value Source: NWS Daily Summary

Daily Weather History Graph

Daily Weather History Graph

Search for Another Location

Airport:

Trip Planner

Search our weather history database for the weather conditions in past years. The results will help you decide how hot, cold, wet, or windy it might be!

Date:

Astronomy

Nov. 14, 2013 Rise Set
Actual Time 7:31 AM EST 5:05 PM EST
Civil Twilight 6:59 AM EST 5:37 PM EST
Nautical Twilight 6:23 AM EST 6:13 PM EST
Astronomical Twilight 5:49 AM EST 6:47 PM EST
Moon 3:32 PM EST (11/14) 4:17 AM EST (11/14)
Length of Visible Light 10h 38m
Length of Day
9h 34m
Waxing Gibbous, 91% of the Moon is Illuminated
Nov 14
Waxing Gibbous
Nov 17
Full
Nov 25
Last Quarter
Dec 2
New
Dec 9
First Quarter

Hourly Weather History & Observations

Time (EST) Temp. Windchill Dew Point Humidity Pressure Visibility Wind Dir Wind Speed Gust Speed Precip Events Conditions
12:54 AM 37.9 °F 30.0 °F 24.1 °F 57% 29.92 in 10.0 mi SW 12.7 mph 20.7 mph N/A   Clear
1:54 AM 37.9 °F 30.0 °F 24.1 °F 57% 29.91 in 10.0 mi WSW 12.7 mph 19.6 mph N/A   Clear
2:54 AM 37.9 °F 29.6 °F 23.0 °F 55% 29.91 in 10.0 mi SW 13.8 mph 20.7 mph N/A   Clear
3:54 AM 37.0 °F 30.4 °F 23.0 °F 57% 29.92 in 10.0 mi SW 9.2 mph - N/A   Clear
4:54 AM 37.0 °F 29.3 °F 21.9 °F 54% 29.91 in 10.0 mi SW 11.5 mph - N/A   Clear
5:54 AM 35.1 °F 26.9 °F 21.9 °F 59% 29.91 in 10.0 mi SW 11.5 mph - N/A   Clear
6:54 AM 36.0 °F 29.6 °F 23.0 °F 59% 29.92 in 10.0 mi SW 8.1 mph - N/A   Clear
7:54 AM 35.1 °F 28.6 °F 23.0 °F 61% 29.92 in 10.0 mi SSW 8.1 mph - N/A   Clear
8:54 AM 37.0 °F 30.4 °F 24.1 °F 59% 29.92 in 10.0 mi SW 9.2 mph - N/A   Clear
9:54 AM 41.0 °F 33.5 °F 25.0 °F 53% 29.91 in 10.0 mi WSW 13.8 mph 19.6 mph N/A   Clear
10:54 AM 43.0 °F 36.8 °F 26.1 °F 51% 29.90 in 10.0 mi WSW 11.5 mph 21.9 mph N/A   Clear
11:54 AM 44.1 °F 38.1 °F 27.0 °F 51% 29.89 in 10.0 mi WSW 11.5 mph - N/A   Clear
12:54 PM 46.0 °F 40.6 °F 27.0 °F 47% 29.86 in 10.0 mi WSW 11.5 mph - N/A   Clear
1:54 PM 48.0 °F - 28.0 °F 46% 29.85 in 10.0 mi WSW 9.2 mph - N/A   Clear
2:54 PM 48.9 °F - 28.9 °F 46% 29.84 in 10.0 mi WSW 8.1 mph - N/A   Clear
3:54 PM 48.9 °F - 30.0 °F 48% 29.83 in 10.0 mi SW 5.8 mph - N/A   Clear
4:54 PM 46.9 °F - 30.0 °F 52% 29.83 in 10.0 mi SW 3.5 mph - N/A   Clear
5:54 PM 45.0 °F 41.8 °F 30.0 °F 56% 29.85 in 10.0 mi SW 5.8 mph - N/A   Clear
6:54 PM 45.0 °F 41.8 °F 30.0 °F 56% 29.87 in 10.0 mi WSW 5.8 mph - N/A   Clear
7:54 PM 43.0 °F 38.8 °F 30.0 °F 60% 29.88 in 10.0 mi WSW 6.9 mph - N/A   Clear
8:54 PM 41.0 °F 35.2 °F 30.0 °F 65% 29.88 in 10.0 mi SW 9.2 mph - N/A   Partly Cloudy
9:54 PM 39.9 °F 33.4 °F 30.0 °F 68% 29.87 in 10.0 mi SW 10.4 mph - N/A   Mostly Cloudy
10:54 PM 41.0 °F 36.4 °F 30.0 °F 65% 29.88 in 10.0 mi WSW 6.9 mph - N/A   Overcast
11:54 PM 41.0 °F 34.7 °F 30.9 °F 67% 29.87 in 10.0 mi WSW 10.4 mph - N/A   Overcast